Location: Mannheim
(49.4880°N, 8.4650°E)
Time: 18:33:48
(UTC+01:00)

ISS - Pass Details

Date: 21 November 2023
Orbit: 416 x 417 km, 51.6° (Epoch: 30 November)

Event Time Altitude Azimuth Distance (km) Brightness Sun altitude
Rises 19:49:11 0° 270° (W) 2,364 1.2 -30.7°
Reaches altitude 10° 19:51:18 10° 275° (W) 1,502 -0.1 -31.1°
Enters shadow 19:51:43 13° 276° (W) 1,339 -0.4 -31.1°
